METAR LSZS 180420Z AUTO 23001KT CAVOK 03/03 Q1022=
Diese Daten sind ohne Gewähr und dürfen nicht für die Flugvorbereitung verwendet werden.
Information contained in this website shall not be used for flight operation purposes.